Regional Weather Roundup
Issued by NWS

Home | Current Version | Previous Version | Text Only | Print | Product List | Glossary Off
Versions: 1 2 3 4 5 6 7 8 9 10 11 12 13 14 15 16 17 18 19 20 21 22 23 24 25 26 27 28 29 30 31 32 33 34 35 36 37 38 39 40 41 42 43 44 45 46 47 48 49 50

000
ASUS45 KTFX 231104
RWRMT
MONTANA HOURLY WEATHER ROUNDUP
NATIONAL WEATHER SERVICE GREAT FALLS MT
504 AM MDT WED APR 23 2014

NOTE: "FAIR" INDICATES FEW OR NO CLOUDS BELOW 12000 FEET WITH NO
SIGNIFICANT WEATHER AND/OR OBSTRUCTIONS TO VISIBILITY.

* THESE STATIONS ARE NOT UNDER NWS QUALITY CONTROL. THEY DO NOT
   REPORT WEATHER SUCH AS PRECIPITATION OR FOG.

MTZ001>007-043-231200-
WEST OF THE DIVIDE
CITY           SKY/WX    TMP DP  RH WIND       PRES   REMARKS
KALISPELL      PTCLDY    36  25  64 S9        29.74R WCI  29
MISSOULA       CLOUDY    36  27  70 NW9       29.81R WCI  29
BUTTE          CLOUDY    30  21  69 NW9       29.73R WCI  22
MULLAN PASS    CLOUDY    25  21  85 VRB7      29.76R WCI  17
* ESSEX        N/A       34  25  70 S6G11      N/A   WCI  29
* LINCOLN      N/A       34  26  73 SW6G17     N/A   WCI  29
* LOOKOUT PASS N/A       32  24  72 SE2G11     N/A
* POLSON       N/A       34  24  67 S2G11      N/A
* SEELEY LAKE  N/A       33  26  75 W3         N/A
* THOMP F APT  PTCLDY    26  26 100 E5G27      N/A   WCI  20
$$

MTZ008-052>055-231200-
SOUTHWEST MONTANA
CITY           SKY/WX    TMP DP  RH WIND       PRES   REMARKS
BOZEMAN        LGT SNOW  34  30  85 NW8       29.74R WCI  27
DILLON         CLOUDY    28  27  96 SE10      29.74R WCI  19
W YELLOWSTONE  N/A       28  27  96 SW6G17     N/A   WCI  21
* THREE FORKS  CLOUDY    36  36 100 SW5        N/A   WCI  32
* BOULDER HILL N/A       31  14  49 NE3G12     N/A
* MONIDA PASS  N/A       23  23 100 NW20       N/A   WCI   8
* RAYNOLDS PAS N/A       27  24  88 NW9        N/A   WCI  18
* WHITEHALL    N/A       35  28  76 W8G19      N/A   WCI  28
* WISE RIVER   N/A       29  23  78 NW5G15     N/A   WCI  24
$$

MTZ009>010-012-014-046-048-049-054-231200-
EAST SLOPES AND CENTRAL MONTANA
CITY           SKY/WX    TMP DP  RH WIND       PRES   REMARKS
CUT BANK       CLOUDY    37  25  62 W20       29.55S WCI  27
GREAT FALLS    CLOUDY    37  30  76 SW14      29.59R WCI  28
HELENA         CLOUDY    39  25  57 W14G26    29.70R WCI  31
MALMSTROM AFB  CLOUDY    39  30  70 SW16      29.57R WCI  30
* CONRAD       CLOUDY    39  25  57 SW14G22    N/A   WCI  31
* DEARBORN     N/A       41  25  53 S10G18     N/A
* EAST GLACIER N/A       34  16  48 NW28G37    N/A   WCI  21
* MONARCH      N/A       32  24  72 W19        N/A   WCI  20
* PENDROY      N/A       37  18  46 NW18G35    N/A   WCI  27
* ROGERS PASS  N/A       29  23  78 E14G28     N/A   WCI  18
* SAINT MARY   N/A       36  19  50 SW11G28    N/A   WCI  28
* SWEET GRASS  N/A       39  26  60 W30G44     N/A   WCI  27
$$

MTZ011-013-016-021-035-040-045-047-050-051-231200-
NORTH CENTRAL MONTANA
CITY           SKY/WX    TMP DP  RH WIND       PRES   REMARKS
HAVRE          CLOUDY    45  39  80 W15       29.51S
LEWISTOWN      CLOUDY    39  36  89 NW21G28   29.55S WCI  29
* CHESTER      N/A       42  30  63 W20G30     N/A
* DENTON       N/A       40  32  73 W29G37     N/A   WCI  29
* GEYSER       N/A       37  29  73 W27G34     N/A   WCI  25
* JUDITH GAP   N/A       37  36  96 VRB17G24    N/A   WCI  27
* LOMA         N/A       44  39  83 SW12       N/A
$$

MTZ017>020-022>027-061-062-231200-
NORTHEAST MONTANA
CITY           SKY/WX    TMP DP  RH WIND       PRES   REMARKS
GLASGOW        CLOUDY    50  32  50 E8        29.38S
GLENDIVE       CLOUDY    54  34  47 E17       29.37S
JORDAN         CLOUDY    52  43  72 W26G33    29.42R
SIDNEY         CLOUDY    54  36  51 SE14G23   29.40F
WOLF POINT     CLOUDY    52  34  50 E9        29.38R
* BEAVER HILL  N/A       51  34  52 E34G40     N/A
* CIRCLE       N/A       51  34  52 N/A        N/A
* LINDSAY DVD  N/A       48  34  59 E13        N/A
* NAVAJO       N/A       48  34  59 E20G29     N/A
* SACO         N/A       50  41  71 SW4        N/A
$$

MTZ028>042-056>058-231200-
SOUTHCENTRAL AND SOUTHEAST MONTANA
CITY           SKY/WX    TMP DP  RH WIND       PRES   REMARKS
BAKER          CLOUDY    50  37  61 E13       29.38R
BILLINGS       CLOUDY    45  36  71 NW13      29.51R
LIVINGSTON     LGT SNOW  34  34 100 W16G26    29.67R VSB 1    WCI  24
MILES CITY     MOCLDY    48  37  66 W13       29.36R
* LAUREL APT   CLOUDY    46  30  54 W9         N/A
* ROUNDUP APT  CLOUDY    46  36  68 N/A        N/A
* HYSHAM       N/A       47  39  74 W14G22     N/A
* REED POINT   N/A       43  31  63 W27G37     N/A
* ROSCOE HILL  N/A       42  21  43 SW4G17     N/A
$$

REGIONAL REPORTS...DAKOTAS
CITY           SKY/WX    TMP DP  RH WIND       PRES   REMARKS
WILLISTON      CLOUDY    52  37  57 SE30G41   29.41F
DICKINSON      CLOUDY    48  36  63 E24G33    29.43F
CROSBY         MOCLDY    46  36  68 E24G35    29.53S
TIOGA          CLEAR     46  41  83 SE24G35   29.55F
WATFORD CITY   PTCLDY    50  37  61 SE33G45   29.43F
BISMARCK       CLOUDY    52  39  61 E20G28    29.63F
GRAND FORKS    CLOUDY    45  28  51 SE18      29.92F
FARGO          CLOUDY    48  30  50 SE15      29.92F
BUFFALO SD     CLOUDY    57  43  60 SE17      29.33R
RAPID CITY     CLOUDY    54  41  62 S8        29.46R
$$

REGIONAL REPORTS...WYOMING/IDAHO/WASHINGTON
CITY           SKY/WX    TMP DP  RH WIND       PRES   REMARKS
GILLETTE       MOCLDY    55  37  51 SW24      29.45S
SHERIDAN       CLOUDY    50  37  61 NW35G43   29.45R
CODY           MOCLDY    45  25  45 W15G21    29.53R
YELLOWSTONE LA PTCLDY    27  21  78 W8        29.66S WCI  19
SALMON         CLOUDY    37  19  48 CALM      29.83R
MULLAN PASS    CLOUDY    25  21  85 VRB7      29.76S WCI  17
SPOKANE        MOCLDY    34  30  85 S9        29.83S WCI  27

$$




USA.gov is the U.S. government's official web portal to all federal, state and local government web resources and services.